Weather History for KNBT - April, 2013

Change the Weather History Date:

Thursday, April 25, 2013

  Actual Average (KMRH) Record (KMRH)
Temperature  
Mean Temperature 62 °F -  
Max Temperature 69 °F 74 °F 88 °F (1990)
Min Temperature 55 °F 52 °F 37 °F (1969)
Degree Days  
Heating Degree Days 4    
Growing Degree Days 12 (Base 50)    
Moisture  
Dew Point 55 °F    
Average Humidity 76    
Maximum Humidity 87    
Minimum Humidity 67    
Precipitation  
Precipitation 0.01 in - - ()
Sea Level Pressure  
Sea Level Pressure 30.20 in    
Wind  
Wind Speed 12 mph (NE)    
Max Wind Speed 18 mph    
Max Gust Speed 26 mph    
Visibility 10 miles    
Events      
Averages and records for this station are not official NWS values.
T = Trace of Precipitation, MM = Missing Value Source: NWS Daily Summary

Daily Weather History Graph

Daily Weather History Graph

Search for Another Location

Airport or City:

Trip Planner

Search our weather history database for the weather conditions in past years. The results will help you decide how hot, cold, wet, or windy it might be!

Date:

Astronomy

Apr. 25, 2013 Rise Set
Actual Time 6:21 AM EDT 7:46 PM EDT
Civil Twilight 5:54 AM EDT 8:13 PM EDT
Nautical Twilight 5:22 AM EDT 8:45 PM EDT
Astronomical Twilight 4:49 AM EDT 9:18 PM EDT
Moon 7:56 PM EDT (4/25) 6:02 AM EDT (4/25)
Length of Visible Light 14h 18m
Length of Day
13h 25m
Full, 100% of the Moon is Illuminated
Apr 25
Full
Apr 25
Full
May 2
Last Quarter
May 9
New
May 18
First Quarter

Hourly Weather History & Observations

Time (EDT) Temp. Dew Point Humidity Pressure Visibility Wind Dir Wind Speed Gust Speed Precip Events Conditions
12:56 AM 66.9 °F 62.1 °F 84% 30.11 in 10.0 mi SSW 11.5 mph - N/A   Clear
1:56 AM 68.0 °F 63.0 °F 84% 30.09 in 10.0 mi SSW 11.5 mph - N/A   Clear
2:56 AM 68.0 °F 64.0 °F 87% 30.08 in 10.0 mi SSW 12.7 mph - N/A   Clear
3:56 AM 68.0 °F 64.0 °F 87% 30.08 in 10.0 mi SSW 10.4 mph - N/A   Clear
4:56 AM 68.0 °F 64.0 °F 87% 30.09 in 10.0 mi SW 10.4 mph - N/A   Partly Cloudy
5:56 AM 68.0 °F 64.0 °F 87% 30.12 in 10.0 mi SW 10.4 mph - N/A   Overcast
6:56 AM 68.0 °F 62.1 °F 81% 30.14 in 10.0 mi WSW 10.4 mph - N/A   Overcast
7:56 AM 68.0 °F 62.1 °F 81% 30.17 in 10.0 mi West 8.1 mph - N/A   Overcast
8:56 AM 66.9 °F 61.0 °F 81% 30.18 in 10.0 mi West 10.4 mph - 0.00 in   Overcast
9:56 AM 66.9 °F 60.1 °F 79% 30.19 in 10.0 mi NNW 10.4 mph - N/A   Mostly Cloudy
10:56 AM 68.0 °F 59.0 °F 73% 30.20 in 10.0 mi North 13.8 mph - N/A   Mostly Cloudy
11:56 AM 62.1 °F 51.1 °F 67% 30.22 in 10.0 mi NE 18.4 mph 25.3 mph N/A   Overcast
12:56 PM 61.0 °F 51.1 °F 70% 30.24 in 10.0 mi ENE 17.3 mph 23.0 mph N/A   Overcast
1:56 PM 61.0 °F 51.1 °F 70% 30.23 in 10.0 mi ENE 16.1 mph - N/A   Overcast
2:56 PM 60.1 °F 51.1 °F 72% 30.24 in 10.0 mi ENE 13.8 mph 23.0 mph N/A   Overcast
3:56 PM 59.0 °F 50.0 °F 72% 30.24 in 10.0 mi ENE 13.8 mph 21.9 mph N/A   Overcast
4:56 PM 59.0 °F 48.9 °F 69% 30.25 in 10.0 mi ENE 17.3 mph 23.0 mph N/A   Overcast
5:13 PM 59.0 °F 48.2 °F 67% 30.23 in 10.0 mi ENE 17.3 mph 26.5 mph N/A   Overcast
5:56 PM 57.9 °F 48.9 °F 72% 30.25 in 10.0 mi ENE 18.4 mph 25.3 mph N/A   Overcast
6:56 PM 57.0 °F 46.9 °F 69% 30.24 in 10.0 mi ENE 17.3 mph 20.7 mph N/A   Mostly Cloudy
7:56 PM 55.9 °F 48.0 °F 75% 30.25 in 10.0 mi ENE 17.3 mph 21.9 mph 0.01 in   Overcast
8:56 PM 57.0 °F 46.9 °F 69% 30.27 in 10.0 mi ENE 10.4 mph 20.7 mph 0.00 in   Mostly Cloudy
9:56 PM 57.0 °F 48.0 °F 72% 30.28 in 10.0 mi NE 9.2 mph - N/A   Overcast
10:56 PM 57.0 °F 46.0 °F 67% 30.30 in 10.0 mi NNE 9.2 mph - N/A   Clear
11:56 PM 55.9 °F 46.9 °F 72% 30.30 in 10.0 mi NNE 6.9 mph - N/A   Clear